• In Hungary
  • List of Countries
  • For 7 days
  • Water Temperature
  • Satellite Maps
  • Weather Map
  • News
  • Weather Widgets
  • user-avatar
    Login

    Hourly Weather Kildigulovo

    Today, 25 May, Friday

    Time Temperature Precipitation Wind Pressure Humidity
    00:00 +15°C° 0.1 mm 1 mps 717 mmHg 89%
    01:00 +14°C° 0.1 mm 1 mps 717 mmHg 90%
    02:00 +14°C° 0.1 mm 1 mps 717 mmHg 91%
    03:00 +14°C° 0.1 mm 1 mps 717 mmHg 92%
    04:00 +14°C° 0.1 mm 1 mps 716 mmHg 92%
    05:00 +15°C° 0.1 mm 1 mps 716 mmHg 88%
    06:00 +16°C° 0.1 mm 1 mps 716 mmHg 84%
    07:00 +18°C° 0.1 mm 1 mps 715 mmHg 80%
    08:00 +18°C° 0.2 mm 2 mps 715 mmHg 75%
    09:00 +19°C° 0.2 mm 3 mps 715 mmHg 70%
    10:00 +20°C° 0.2 mm 4 mps 715 mmHg 66%
    11:00 +18°C° 1.2 mm 3 mps 715 mmHg 72%
    12:00 +16°C° 1.2 mm 3 mps 714 mmHg 78%
    13:00 +13°C° 1.2 mm 3 mps 714 mmHg 84%
    14:00 +13°C° 0.9 mm 3 mps 714 mmHg 85%
    15:00 +14°C° 0.9 mm 2 mps 714 mmHg 87%
    16:00 +14°C° 0.9 mm 1 mps 714 mmHg 88%
    17:00 +14°C° 0.2 mm 2 mps 714 mmHg 89%
    18:00 +13°C° 0.2 mm 2 mps 714 mmHg 90%
    19:00 +13°C° 0.2 mm 2 mps 713 mmHg 90%
    20:00 +11°C° 1.4 mm 3 mps 713 mmHg 91%
    21:00 +9°C° 1.4 mm 3 mps 713 mmHg 92%
    22:00 +7°C° 1.4 mm 4 mps 713 mmHg 93%
    23:00 +6°C° 0.6 mm 4 mps 713 mmHg 92%

    Tomorrow, 26 May, Saturday

    Time Temperature Precipitation Wind Pressure Humidity
    00:00 +6°C° 0.6 mm 4 mps 713 mmHg 92%
    01:00 +5°C° 0.6 mm 3 mps 713 mmHg 91%
    02:00 +4°C° 0 mm 4 mps 714 mmHg 91%
    03:00 +4°C° 0 mm 4 mps 714 mmHg 91%
    04:00 +4°C° 0 mm 4 mps 714 mmHg 91%
    05:00 +3°C° 0 mm 5 mps 715 mmHg 85%
    06:00 +3°C° 0 mm 6 mps 715 mmHg 79%
    07:00 +3°C° 0 mm 6 mps 716 mmHg 73%
    08:00 +5°C° 0 mm 6 mps 717 mmHg 63%
    09:00 +7°C° 0 mm 6 mps 717 mmHg 53%
    10:00 +9°C° 0 mm 6 mps 718 mmHg 44%
    11:00 +9°C° 0 mm 6 mps 718 mmHg 41%
    12:00 +10°C° 0 mm 6 mps 719 mmHg 39%
    13:00 +10°C° 0 mm 6 mps 719 mmHg 36%
    14:00 +10°C° 0 mm 5 mps 719 mmHg 36%
    15:00 +10°C° 0 mm 5 mps 720 mmHg 37%
    16:00 +10°C° 0 mm 5 mps 720 mmHg 37%
    17:00 +9°C° 0 mm 5 mps 720 mmHg 40%
    18:00 +8°C° 0 mm 4 mps 721 mmHg 44%
    19:00 +9°C° 0 mm 3 mps 721 mmHg 47%
    20:00 +7°C° 0 mm 3 mps 722 mmHg 52%
    21:00 +4°C° 0 mm 3 mps 722 mmHg 57%
    22:00 +4°C° 0 mm 2 mps 722 mmHg 62%
    23:00 +3°C° 0 mm 2 mps 723 mmHg 64%

    Day after tomorrow, 27 May, Sunday

    Time Temperature Precipitation Wind Pressure Humidity
    00:00 +2°C° 0 mm 2 mps 723 mmHg 65%
    01:00 +2°C° 0 mm 2 mps 723 mmHg 67%
    02:00 +2°C° 0 mm 1 mps 723 mmHg 68%
    03:00 +2°C° 0 mm 1 mps 724 mmHg 69%
    04:00 +1°C° 0 mm 1 mps 724 mmHg 70%
    05:00 +3°C° 0 mm 2 mps 724 mmHg 62%
    06:00 +5°C° 0 mm 2 mps 724 mmHg 54%
    07:00 +7°C° 0 mm 2 mps 725 mmHg 46%
    08:00 +9°C° 0 mm 3 mps 725 mmHg 44%
    09:00 +11°C° 0 mm 4 mps 725 mmHg 42%
    10:00 +12°C° 0 mm 4 mps 725 mmHg 40%
    11:00 +13°C° 0 mm 4 mps 724 mmHg 40%
    12:00 +14°C° 0 mm 5 mps 724 mmHg 40%
    13:00 +15°C° 0 mm 5 mps 723 mmHg 41%
    14:00 +15°C° 0 mm 5 mps 723 mmHg 43%
    15:00 +16°C° 0 mm 6 mps 722 mmHg 45%
    16:00 +16°C° 0 mm 6 mps 722 mmHg 47%
    17:00 +15°C° 0 mm 6 mps 721 mmHg 52%
    18:00 +14°C° 0 mm 6 mps 721 mmHg 57%
    19:00 +13°C° 0 mm 5 mps 720 mmHg 61%
    20:00 +12°C° 0 mm 5 mps 720 mmHg 65%
    21:00 +11°C° 0 mm 6 mps 720 mmHg 68%
    22:00 +10°C° 0 mm 6 mps 719 mmHg 72%
    23:00 +10°C° 0.1 mm 6 mps 718 mmHg 74%

    28 May, Monday

    Time Temperature Precipitation Wind Pressure Humidity
    00:00 +9°C° 0.1 mm 6 mps 718 mmHg 75%
    01:00 +9°C° 0.1 mm 6 mps 717 mmHg 77%
    02:00 +9°C° 0.2 mm 7 mps 716 mmHg 80%
    03:00 +9°C° 0.2 mm 7 mps 715 mmHg 82%
    04:00 +8°C° 0.2 mm 7 mps 714 mmHg 85%
    05:00 +7°C° 1.3 mm 8 mps 714 mmHg 86%
    06:00 +7°C° 1.3 mm 8 mps 713 mmHg 87%
    07:00 +7°C° 1.3 mm 9 mps 712 mmHg 88%
    08:00 +7°C° 1.3 mm 8 mps 712 mmHg 88%
    09:00 +6°C° 1.3 mm 7 mps 712 mmHg 88%
    10:00 +7°C° 1.3 mm 6 mps 712 mmHg 88%
    11:00 +8°C° 0.1 mm 6 mps 713 mmHg 77%
    12:00 +9°C° 0.1 mm 6 mps 713 mmHg 67%
    13:00 +10°C° 0.1 mm 6 mps 714 mmHg 57%
    14:00 +10°C° 0.2 mm 6 mps 714 mmHg 56%
    15:00 +10°C° 0.2 mm 6 mps 714 mmHg 55%
    16:00 +10°C° 0.2 mm 6 mps 714 mmHg 54%
    17:00 +8°C° 0.1 mm 5 mps 714 mmHg 60%
    18:00 +7°C° 0.1 mm 5 mps 714 mmHg 65%
    19:00 +6°C° 0.1 mm 4 mps 714 mmHg 71%
    20:00 +5°C° 0 mm 4 mps 714 mmHg 76%
    21:00 +3°C° 0 mm 3 mps 715 mmHg 81%
    22:00 +2°C° 0 mm 3 mps 715 mmHg 86%
    23:00 +1°C° 0 mm 3 mps 715 mmHg 86%

    29 May, Tuesday

    Time Temperature Precipitation Wind Pressure Humidity
    00:00 +1°C° 0 mm 3 mps 715 mmHg 87%
    01:00 0°C° 0 mm 3 mps 715 mmHg 87%
    02:00 -1°C° 0 mm 3 mps 715 mmHg 89%
    03:00 -1°C° 0 mm 2 mps 715 mmHg 90%
    04:00 -2°C° 0 mm 2 mps 715 mmHg 91%
    05:00 0°C° 0 mm 3 mps 715 mmHg 81%
    06:00 0°C° 0 mm 4 mps 716 mmHg 72%
    07:00 +2°C° 0 mm 5 mps 716 mmHg 62%
    08:00 +3°C° 0.1 mm 5 mps 716 mmHg 58%
    09:00 +4°C° 0.1 mm 6 mps 716 mmHg 54%
    10:00 +5°C° 0.1 mm 6 mps 716 mmHg 50%
    11:00 +5°C° 0.2 mm 6 mps 715 mmHg 49%
    12:00 +5°C° 0.2 mm 6 mps 715 mmHg 48%
    13:00 +7°C° 0.2 mm 6 mps 715 mmHg 46%
    14:00 +7°C° 0.2 mm 6 mps 715 mmHg 48%
    15:00 +7°C° 0.2 mm 6 mps 715 mmHg 49%
    16:00 +5°C° 0.2 mm 6 mps 715 mmHg 50%
    17:00 +6°C° 0.1 mm 5 mps 715 mmHg 54%
    18:00 +5°C° 0.1 mm 5 mps 715 mmHg 58%
    19:00 +4°C° 0.1 mm 4 mps 715 mmHg 62%
    20:00 +3°C° 0 mm 3 mps 715 mmHg 71%
    21:00 +1°C° 0 mm 3 mps 716 mmHg 79%
    22:00 -1°C° 0 mm 2 mps 716 mmHg 88%
    23:00 -1°C° 0 mm 2 mps 716 mmHg 89%

    30 May, Wednesday

    Time Temperature Precipitation Wind Pressure Humidity
    00:00 -2°C° 0 mm 2 mps 715 mmHg 91%
    01:00 0°C° 0 mm 1 mps 715 mmHg 92%
    02:00 0°C° 0 mm 1 mps 715 mmHg 93%
    03:00 0°C° 0 mm 1 mps 715 mmHg 93%
    04:00 -3°C° 0 mm 2 mps 715 mmHg 93%
    05:00 +1°C° 0 mm 2 mps 715 mmHg 83%
    06:00 +3°C° 0 mm 2 mps 715 mmHg 73%
    07:00 +4°C° 0 mm 3 mps 714 mmHg 63%
    08:00 +4°C° 0.2 mm 4 mps 714 mmHg 65%
    09:00 +4°C° 0.2 mm 4 mps 713 mmHg 67%
    10:00 +3°C° 0.2 mm 5 mps 712 mmHg 69%
    11:00 +3°C° 0.5 mm 5 mps 711 mmHg 76%
    12:00 +2°C° 0.5 mm 5 mps 711 mmHg 82%
    13:00 +2°C° 0.5 mm 5 mps 710 mmHg 88%
    14:00 +3°C° 0.4 mm 5 mps 709 mmHg 90%
    15:00 +5°C° 0.4 mm 5 mps 709 mmHg 92%
    16:00 +6°C° 0.4 mm 4 mps 708 mmHg 94%
    17:00 +7°C° 0.1 mm 4 mps 708 mmHg 93%
    18:00 +8°C° 0.1 mm 4 mps 708 mmHg 92%
    19:00 +10°C° 0.1 mm 4 mps 708 mmHg 91%
    20:00 +8°C° 0 mm 4 mps 708 mmHg 92%
    21:00 +7°C° 0 mm 3 mps 708 mmHg 93%
    22:00 +5°C° 0 mm 3 mps 708 mmHg 95%
    23:00 +5°C° 0 mm 3 mps 708 mmHg 95%
    Show more